Flag for U.S.A. Weather past 2 weeks in Huntington Beach, California, U.S.A.

Now
72 °F

Passing clouds.


Feels Like: 73 °F
Forecast: 64 / 78 °F
Wind: 5 mph from South

Location: John Wayne Airport-Orange County Airport

Current Time: Sep 30, 2014 at 10:34:03 PM

Latest Report: Sep 30, 2014 at 9:53 PM


Visibility: 8 mi

Pressure: 29.77 "Hg

Humidity: 78%

Dew point: 65 °F

Location of Huntington BeachLocation

Historic Weather in Huntington Beach — Graph

°F

Huntington Beach temperature yesterday

Maximum temperature yesterday: 80 °F (at 2:53 PM)
Minimum temperature yesterday: 65 °F (at 6:53 AM)
Average temperature yesterday: 72 °F

Past Weeks' High & Low Weather Summary

 TemperatureHumidityPressure
High99 °F (Sep 16, 4:53 PM)88% (Sep 23, 6:00 AM)29.99 "Hg (Sep 23, 6:00 AM)
Low65 °F (Sep 29, 6:53 AM)24% (Sep 16, 3:53 PM)29.67 "Hg (Sep 16, 5:53 PM)
Average76 °F60%29.86 "Hg
* Reported Sep 15 8:53 PM — Sep 30 8:53 PM, Huntington Beach, Weather by CustomWeather, © 2014

Note: Actual official high and low records may vary slightly from our data, if they occured in-between our weather recording intervals... More about our weather records

Advertising

Huntington Beach weather history for previous 24 hours

 ConditionsComfort  
Time TempWeatherWind HumidityBarometerVisibility
8:53 PM
Sep 30
73 °FPassing clouds.6 mph74%29.77 "Hg10 mi
7:53 PM74 °FPassing clouds.3 mph67%29.76 "Hg10 mi
6:53 PM76 °FSunny.5 mph60%29.75 "Hg10 mi
5:53 PM78 °FSunny.7 mph58%29.75 "Hg10 mi
4:53 PM81 °FSunny.10 mph53%29.75 "Hg10 mi
3:53 PM83 °FSunny.7 mph44%29.76 "Hg10 mi
2:53 PM84 °FSunny.10 mph41%29.76 "Hg10 mi
1:53 PM85 °FSunny.6 mph37%29.79 "Hg10 mi
12:53 PM84 °FSunny.7 mph38%29.82 "Hg10 mi
11:53 AM82 °FSunny.5 mph48%29.84 "Hg10 mi
10:53 AM79 °FSunny.3 mph50%29.85 "Hg10 mi
9:53 AM76 °FSunny.No wind56%29.87 "Hg10 mi
8:53 AM73 °FSunny.No wind59%29.86 "Hg10 mi
7:53 AM68 °FSunny.No wind68%29.85 "Hg10 mi
6:53 AM66 °FClear.3 mph70%29.85 "Hg10 mi
5:53 AM67 °FClear.No wind71%29.84 "Hg10 mi
4:53 AM67 °FClear.No wind68%29.84 "Hg10 mi
3:53 AM67 °FClear.No wind68%29.85 "Hg10 mi
2:53 AM68 °FClear.No wind68%29.85 "Hg10 mi
1:53 AM69 °FClear.No wind68%29.86 "Hg10 mi
12:53 AM69 °FClear.No wind66%29.86 "Hg10 mi
11:53 PM
Sep 29
70 °FClear.No wind68%29.87 "Hg10 mi
10:53 PM70 °FPassing clouds.No wind68%29.87 "Hg10 mi
Weather by CustomWeather, © 2014

See weather overviewHow to use our weather pages